GFSNE_sfc_temp_021.txt.gz
Temp
76 75 75 78 78 77 76 75 72 69 72 76 74 77 78 79 77 76 76 72 68 67 66 66 66 67 68 69 69 70 71 72 72 73 74 76 77 78
77 74 74 78 77 77 76 76 74 71 68 77 76 76 76 76 77 75 76 69 69 67 66 65 65 66 67 67 68 68 69 69 70 71 72 73 74 75
75 74 74 75 77 77 75 75 74 72 69 74 78 75 71 72 74 76 76 75 77 69 67 66 65 65 66 66 66 67 67 68 69 69 70 71 72 73
75 74 74 77 73 73 73 71 74 73 70 67 73 74 73 73 73 72 74 77 77 73 67 66 65 64 64 64 64 64 65 65 66 67 68 69 70 71
75 75 75 75 73 73 74 74 75 73 70 66 70 75 74 74 72 73 73 74 76 72 66 65 64 64 64 63 62 62 62 62 62 63 64 66 68 70
76 76 76 75 74 73 73 71 71 71 70 64 66 71 73 73 72 71 71 76 75 78 74 71 69 69 67 65 64 63 61 59 59 60 61 62 64 66
77 76 76 74 70 70 74 73 71 71 72 70 69 72 72 72 70 73 70 73 74 75 75 76 77 78 78 72 70 68 64 62 60 58 58 59 60 62
75 76 76 70 69 66 65 65 67 68 68 67 69 68 64 68 72 70 69 68 66 76 72 72 76 75 76 77 71 68 65 63 60 59 58 58 58 60
75 74 73 77 68 72 68 64 64 63 64 66 62 64 66 68 67 64 63 62 63 70 69 68 73 72 74 75 67 65 64 62 61 60 59 58 57 57
74 74 73 72 71 68 69 70 71 71 70 71 69 68 68 68 66 63 59 60 65 70 71 67 71 65 66 67 65 64 63 62 61 60 59 57 55 55
71 71 70 70 63 60 67 67 68 69 67 60 60 59 59 59 60 59 58 63 65 68 71 65 61 59 61 62 66 64 62 61 59 59 58 57 54 53
64 64 60 64 57 57 65 66 65 67 66 66 67 66 65 66 62 64 63 58 65 57 66 55 55 56 53 62 66 70 71 60 58 57 57 56 53 66
63 70 71 56 53 53 53 65 63 61 63 65 67 69 69 69 70 70 67 66 62 55 61 56 54 55 55 55 63 66 66 71 72 65 54 54 52 63
71 73 68 53 51 52 56 54 54 56 66 66 66 66 66 67 69 68 65 64 65 57 57 56 55 56 56 55 55 61 66 72 74 72 73 60 52 55
72 63 53 50 50 54 54 53 53 65 65 64 64 64 65 67 65 65 65 64 63 59 58 58 58 58 57 57 56 59 60 70 66 68 67 62 60 61
57 66 60 58 53 56 60 62 65 64 62 62 63 64 66 66 65 66 64 60 56 56 59 60 60 59 58 59 57 58 61 64 65 66 65 64 62 63
62 67 66 65 65 65 65 64 64 64 62 63 63 63 64 64 64 65 63 60 54 53 54 56 59 59 58 57 59 62 62 65 65 64 64 62 62 64
62 66 66 65 65 64 63 63 64 60 62 61 62 62 62 62 62 62 62 56 54 55 53 55 56 56 58 56 57 54 60 66 65 64 65 63 62 64
65 65 65 64 64 63 63 62 62 61 58 61 61 61 61 61 60 60 61 50 57 56 55 54 54 53 53 51 56 55 53 61 65 64 65 67 66 65
65 64 63 62 62 63 62 61 60 61 61 60 61 61 62 60 60 60 61 55 55 53 53 55 53 52 52 52 53 56 53 56 58 65 64 67 64 59
64 63 63 62 63 62 60 59 57 59 57 59 60 61 62 61 60 60 61 54 53 49 53 51 52 54 55 58 52 52 55 53 54 53 60 63 64 63
63 61 61 62 62 60 58 58 60 60 60 60 60 61 61 62 61 61 62 58 58 50 51 54 53 52 52 52 50 50 51 54 55 54 53 52 58 62
61 62 62 62 61 59 59 61 61 61 60 59 60 60 61 60 61 62 62 61 58 59 54 57 51 51 49 50 50 49 50 50 52 51 51 52 53 53

GFSNE_sfc_temp_024.txt.gz
Temp
81 80 80 83 85 84 83 82 78 74 77 83 82 84 84 85 83 82 81 76 70 69 67 67 67 67 68 69 69 69 70 70 71 72 72 74 76 78
83 80 79 83 83 84 83 82 81 78 74 82 83 84 83 82 81 80 81 74 72 69 68 67 67 67 67 68 68 68 68 68 69 69 70 71 72 74
80 79 78 79 81 84 84 82 81 81 76 80 83 84 80 79 80 81 81 81 83 71 69 67 66 66 67 67 67 67 67 67 67 68 69 69 70 71
79 79 78 81 78 77 81 78 79 79 78 72 77 79 79 80 79 78 79 83 82 77 69 67 66 65 65 65 64 64 64 65 65 66 66 68 69 70
80 79 79 79 78 80 79 80 82 79 79 76 74 79 79 81 79 78 78 79 82 76 69 69 67 66 64 63 63 62 62 62 62 62 63 64 66 68
80 80 81 80 79 78 78 77 77 76 76 77 77 75 76 75 73 73 75 82 81 85 79 74 72 71 66 64 64 63 61 60 60 60 60 60 62 64
80 81 82 80 74 73 79 78 76 76 78 77 76 76 74 72 70 78 76 78 78 81 81 82 83 83 82 72 71 69 65 62 60 59 58 58 58 60
79 80 81 74 71 67 67 66 68 70 70 71 74 70 69 72 76 74 73 72 71 81 77 77 81 79 81 82 74 69 67 65 61 60 59 58 57 58
76 75 75 72 74 77 69 65 65 64 64 69 68 70 70 72 71 66 67 69 69 74 73 71 78 76 80 83 69 66 63 62 62 61 60 59 57 56
69 69 67 67 71 73 73 75 75 76 74 74 72 72 73 73 70 69 67 64 67 71 72 65 72 75 79 80 70 67 64 63 62 61 60 59 56 54
66 67 67 66 66 63 71 72 73 74 72 63 62 62 61 61 63 68 66 63 64 70 76 71 74 74 74 72 71 65 63 61 60 60 60 58 55 53
64 64 61 60 61 59 69 71 70 73 74 73 72 69 65 70 62 66 65 61 63 68 75 71 70 64 54 62 68 70 69 63 59 58 58 58 54 67
64 63 68 59 55 54 55 70 68 66 67 70 73 76 76 76 76 73 72 72 69 69 73 67 60 56 54 53 59 63 65 66 70 66 54 55 53 60
70 77 71 55 52 53 57 57 56 56 70 73 74 73 74 74 75 74 71 70 72 68 69 65 56 54 53 53 55 62 64 67 66 65 68 65 52 53
72 57 54 52 51 54 54 56 54 69 72 71 71 72 73 74 71 72 73 72 72 72 72 68 60 56 55 54 56 57 58 61 63 68 67 75 71 67
58 70 64 60 57 57 62 61 69 72 70 69 70 71 72 72 72 73 71 72 70 69 71 70 62 58 55 57 58 57 59 57 65 71 72 72 74 73
70 74 72 72 72 71 72 72 71 71 69 70 69 69 70 70 70 72 70 70 67 63 66 69 66 59 58 56 54 54 54 60 63 67 64 64 67 70
67 72 73 73 72 72 71 70 70 66 69 68 68 69 68 68 68 69 70 67 63 64 64 65 58 56 55 58 57 54 54 56 66 67 65 63 63 68
70 74 72 72 70 71 70 70 69 69 65 67 67 67 68 68 67 67 67 66 65 64 58 62 55 52 49 50 56 55 52 54 56 63 65 69 67 64
72 72 72 71 70 69 69 68 68 68 68 67 67 68 68 67 67 66 67 65 63 59 55 58 55 52 49 50 51 54 51 53 53 54 65 69 65 62
74 72 72 71 70 69 67 66 64 66 64 65 67 67 68 68 67 67 67 57 57 65 60 57 52 54 54 56 51 51 52 52 53 53 54 63 65 64
74 70 71 70 68 66 65 65 65 66 67 67 67 67 67 68 68 67 68 67 67 66 62 63 53 52 51 51 49 49 49 52 54 53 53 52 52 62
71 70 70 68 67 65 65 66 67 68 68 67 67 67 67 67 68 68 68 69 69 66 66 53 49 51 49 49 50 49 49 48 49 49 50 52 52 52

GFSNE_sfc_temp_030.txt.gz
Temp
76 76 75 75 76 75 74 73 71 64 65 71 72 76 76 76 76 74 76 76 72 71 69 69 69 69 69 70 70 70 70 70 70 70 70 71 71 73
76 75 74 75 74 75 74 73 71 69 65 70 71 73 76 77 78 76 76 76 72 70 69 68 69 69 69 69 68 68 68 68 69 69 69 69 69 70
75 75 74 75 73 74 74 73 72 71 66 69 71 74 74 73 75 75 75 74 75 70 69 69 68 68 68 68 68 68 68 68 68 68 68 68 68 69
74 74 74 77 73 73 73 72 72 71 69 67 70 71 72 73 73 72 74 79 73 76 72 70 68 66 66 66 66 66 66 66 66 66 66 67 68 68
75 74 74 74 73 73 73 72 71 71 70 68 67 71 71 72 71 71 71 71 75 75 71 70 68 67 65 64 64 63 63 63 63 63 63 64 65 67
76 75 75 74 73 72 71 69 69 68 68 65 66 68 69 71 70 67 66 69 70 77 76 73 70 68 67 65 64 64 62 60 59 60 60 60 62 64
75 76 76 76 73 70 71 70 68 66 64 64 66 67 68 67 65 68 67 68 68 69 68 70 70 70 71 67 69 67 64 62 60 58 58 58 59 60
74 75 76 74 70 67 67 66 67 64 63 62 62 64 65 65 67 66 65 65 63 69 65 67 68 68 71 73 71 70 65 63 61 60 59 58 58 58
74 74 75 76 71 70 66 65 65 65 65 64 60 61 63 65 65 64 64 63 62 67 65 63 67 66 70 74 69 67 65 64 60 60 60 59 58 58
74 75 73 73 71 69 68 67 67 67 65 64 63 63 65 68 66 65 63 62 64 66 65 60 66 66 70 71 69 67 63 60 61 61 61 58 55 54
73 74 74 73 69 63 67 66 66 66 68 64 64 65 64 64 65 64 63 61 61 64 66 64 66 65 66 67 69 67 63 61 61 60 60 59 57 55
72 72 64 69 61 60 66 67 65 66 67 69 68 67 64 65 64 64 65 62 60 60 66 61 63 64 60 66 65 67 67 63 59 57 58 57 56 58
69 69 72 59 57 56 58 66 65 63 65 66 67 67 68 69 70 70 66 63 61 61 66 65 63 63 61 58 63 65 65 65 64 62 57 54 54 55
70 70 69 58 54 54 56 62 58 59 64 65 65 66 67 67 67 66 65 65 65 63 65 64 62 60 57 56 56 63 64 63 61 60 60 58 57 55
66 57 53 53 53 54 56 60 57 62 63 63 64 64 64 65 65 64 65 65 65 65 67 64 61 60 58 56 56 58 56 59 61 57 58 59 59 60
58 60 61 62 62 63 61 58 62 64 64 64 63 64 65 64 63 63 61 61 60 62 64 65 63 59 57 58 58 56 56 53 57 58 56 55 57 59
65 68 64 65 65 64 65 66 65 64 62 63 64 63 62 62 61 62 60 60 59 60 60 62 63 62 60 58 54 55 54 54 54 53 52 51 54 57
64 66 65 66 66 63 63 64 63 63 62 63 63 62 60 60 59 60 59 59 58 60 59 62 60 59 58 58 60 54 53 51 51 51 51 49 51 59
68 68 68 68 64 66 65 64 62 62 63 64 63 62 61 60 59 59 59 58 58 59 61 59 55 52 49 48 54 55 51 50 49 49 49 48 48 54
67 69 68 69 69 66 65 66 65 64 64 63 62 61 61 60 59 59 59 58 58 58 60 57 52 50 49 49 49 53 52 49 48 47 47 48 52 56
70 71 70 69 67 67 65 64 63 62 60 60 60 60 61 61 59 60 60 56 56 59 57 54 53 54 52 56 51 50 53 53 50 48 47 45 47 51
70 68 68 66 65 64 63 62 62 62 61 62 61 61 61 61 61 61 61 60 59 60 58 55 55 54 53 49 48 49 49 51 52 52 51 49 45 44
68 68 66 66 66 64 64 63 62 63 63 63 62 60 60 60 61 61 62 62 62 60 58 58 57 55 51 48 49 48 47 48 47 46 46 49 50 50

GFSNE_sfc_temp_033.txt.gz
Temp
68 68 68 67 68 69 69 67 65 59 60 64 67 71 73 73 71 70 70 72 70 71 69 69 69 69 70 71 71 71 71 71 71 70 70 71 72 73
69 68 68 68 68 68 67 67 65 62 58 63 65 69 71 74 75 71 71 72 71 70 69 68 68 69 69 69 69 69 69 69 69 69 69 69 70 70
69 68 67 68 67 67 67 66 65 64 61 63 65 67 68 69 71 72 71 69 69 69 69 68 67 67 68 68 68 68 68 68 68 68 68 69 69 69
68 67 67 71 66 66 65 65 65 65 63 61 63 65 67 69 68 68 70 74 69 72 69 67 67 66 66 66 66 66 66 66 66 66 67 67 68 68
70 68 67 67 66 66 66 66 65 66 64 63 61 64 65 65 65 66 66 66 71 72 69 68 68 66 65 64 64 63 63 63 62 63 64 64 65 67
71 70 69 68 66 66 66 65 65 63 63 61 60 61 62 65 63 61 61 62 65 73 71 69 68 68 67 64 64 63 61 60 60 59 59 61 62 64
71 74 73 72 72 69 67 65 64 62 60 59 58 59 59 62 60 61 59 61 63 65 64 65 63 63 64 65 67 67 63 61 60 59 58 57 58 59
71 70 71 73 71 70 69 67 65 61 59 58 58 58 59 63 64 60 58 57 55 64 60 63 61 65 66 63 67 66 64 62 61 59 58 57 57 57
71 72 71 73 67 65 65 65 65 65 65 60 58 58 59 60 61 61 61 60 59 66 61 59 61 60 65 68 66 65 64 62 60 60 59 59 58 58
71 69 68 67 66 64 64 62 63 63 62 63 61 61 60 62 61 62 60 58 57 59 59 54 59 58 63 64 66 65 63 62 60 59 58 57 55 54
68 69 69 66 64 63 63 62 61 62 65 63 63 63 62 63 63 58 57 53 52 55 58 55 59 56 58 62 64 64 63 61 60 60 60 59 56 55
67 68 66 66 61 60 62 60 60 60 61 62 62 61 61 61 63 59 63 53 55 52 58 55 56 55 57 56 58 59 64 61 58 58 57 57 54 57
66 66 66 60 57 56 58 61 61 60 60 58 58 59 59 59 61 63 60 57 54 53 61 56 54 53 53 55 56 60 63 63 62 62 57 55 53 55
66 65 64 58 54 54 56 59 58 59 57 57 57 57 56 58 63 63 63 60 58 59 60 57 52 53 52 51 53 59 62 62 61 60 60 58 54 53
65 59 55 54 53 54 56 57 58 55 54 55 54 54 56 63 62 58 58 58 57 58 61 56 55 55 53 51 53 56 56 58 59 55 58 57 57 58
57 55 56 57 56 57 54 55 54 54 55 54 55 55 55 55 55 55 54 53 51 53 59 58 58 55 52 52 52 54 55 51 57 57 55 55 56 57
57 56 55 55 54 54 54 54 57 57 55 56 58 54 53 53 53 54 52 51 49 49 51 55 55 56 55 54 54 54 52 53 56 54 51 49 53 55
57 58 55 55 55 56 56 56 60 61 59 59 57 55 53 52 52 52 51 49 48 49 49 51 51 50 51 53 60 51 52 52 53 51 50 48 48 53
56 57 57 56 56 56 58 60 57 56 58 59 53 52 52 52 52 50 51 49 50 49 49 50 48 47 45 47 51 55 51 51 50 48 48 47 45 47
55 55 56 56 56 56 55 55 53 53 52 51 51 51 51 50 50 50 50 48 49 48 48 48 46 46 46 49 49 52 52 50 48 46 46 46 48 51
55 55 55 55 54 54 53 52 52 51 51 51 50 49 51 49 49 50 49 51 50 48 48 47 47 54 49 49 47 49 52 53 51 47 45 44 43 45
55 55 54 53 53 53 52 51 51 51 50 49 49 49 49 49 50 49 50 49 48 48 48 48 49 48 46 44 43 45 48 50 52 53 50 47 43 40
55 55 54 54 53 52 52 52 51 51 49 49 49 49 49 49 49 49 50 50 49 49 49 48 47 46 45 44 45 44 45 47 47 46 45 49 49 48